Home > Weather > Inverness > Past weeks

Flag for USA Weather for the Past 2 Weeks in Inverness, Florida, USA

Now
63 °F

Mild.


Feels Like: 63 °F
Forecast: 59 / 78 °F
Wind: 7 mph from West

Location: The Villages

Current Time: May 5, 2016 at 2:51:17 AM

Latest Report: May 5, 2016 at 2:15 AM


Visibility: 10 mi

Pressure: 29.64 "Hg

Humidity: 83%

Dew Point: 57 °F

Location of InvernessLocation

Historic Weather in Inverness — Graph

°F

Inverness Temperature Yesterday

Maximum temperature yesterday: 75 °F (at 12:15 AM)
Minimum temperature yesterday: 66 °F (at 11:15 PM)
Average temperature yesterday: 71 °F

High & Low Weather Summary for the Past Weeks

 TemperatureHumidityPressure
High91 °F (Apr 28, 3:55 PM)100% (Apr 20, 5:15 AM)30.06 "Hg (Apr 20, 5:15 AM)
Low55 °F (Apr 20, 5:15 AM)32% (Apr 20, 4:15 PM)29.57 "Hg (May 4, 7:55 PM)
Average76 °F73%29.88 "Hg
* Reported Apr 20 1:15 AM — May 5 1:55 AM, Inverness, Weather by CustomWeather, © 2016

Note: Actual official high and low records may vary slightly from our data, if they occured in-between our weather recording intervals... More about our weather records

Advertising

Inverness Weather History for the Previous 24 Hours

Scroll right to see more
 ConditionsComfort  
Time TempWeatherWind HumidityBarometerVisibility
1:55 AM
Thu, May 5
63 °FMild.6 mph83%29.63 "Hg10 mi
1:35 AM64 °FMild.8 mph83%29.63 "Hg10 mi
1:15 AM64 °FMild.6 mph83%29.63 "Hg10 mi
12:55 AM64 °FMild.7 mph88%29.62 "Hg10 mi
12:35 AM64 °FMild.No wind94%29.62 "Hg10 mi
12:15 AM64 °FMild.6 mph94%29.63 "Hg10 mi
11:55 PM
Wed, May 4
66 °FMild.6 mph94%29.62 "Hg10 mi
11:35 PM66 °FMild.7 mph94%29.62 "Hg8 mi
11:15 PM66 °FMild.8 mph94%29.62 "Hg10 mi
10:55 PM68 °FMild.7 mph94%29.61 "Hg10 mi
10:15 PM68 °FMild.6 mph94%29.60 "Hg10 mi
9:55 PM68 °FMild.7 mph94%29.59 "Hg10 mi
9:15 PM70 °FMild.6 mph100%29.59 "Hg10 mi
8:55 PM68 °FMild.5 mph100%29.59 "Hg10 mi
8:35 PM68 °FMild.No wind100%29.58 "Hg10 mi
8:15 PM68 °FMild.6 mph100%29.57 "Hg8 mi
7:55 PM68 °FMild.No wind100%29.57 "Hg10 mi
7:15 PM68 °FMild.6 mph100%29.58 "Hg10 mi
6:55 PM68 °FFog.No wind100%29.58 "Hg5 mi
6:35 PM68 °FMild.7 mph100%29.58 "Hg7 mi
6:15 PM70 °FFog.8 mph100%29.58 "Hg4 mi
5:55 PM70 °FFog.No wind100%29.59 "Hg6 mi
5:15 PM70 °FFog.3 mph100%29.58 "Hg1 mi
4:55 PM70 °FFog.6 mph100%29.59 "Hg1 mi
4:35 PM72 °FMild.8 mph94%29.58 "Hg9 mi
4:15 PM72 °FFog.10 mph94%29.59 "Hg5 mi
3:55 PM72 °FMild.13 mph94%29.61 "Hg10 mi
3:35 PM72 °FMild.9 mph100%29.62 "Hg8 mi
3:15 PM72 °FFog.8 mph94%29.63 "Hg2 mi
2:55 PM72 °FFog.9 mph94%29.63 "Hg4 mi
2:35 PM72 °FFog.7 mph94%29.66 "Hg5 mi
2:15 PM75 °FMild.9 mph83%29.67 "Hg10 mi
1:55 PM73 °FMild.13 mph89%29.67 "Hg10 mi
1:35 PM75 °FMild.9 mph89%29.67 "Hg8 mi
1:15 PM73 °FMild.6 mph94%29.69 "Hg10 mi
12:55 PM72 °FMild.6 mph94%29.71 "Hg10 mi
12:35 PM72 °FMild.No wind94%29.71 "Hg9 mi
12:15 PM70 °FMild.7 mph94%29.72 "Hg9 mi
11:55 AM70 °FMild.14 mph94%29.72 "Hg7 mi
11:35 AM72 °FMild.14 mph88%29.73 "Hg10 mi
11:15 AM72 °FMild.13 mph94%29.74 "Hg10 mi
10:55 AM73 °FMild.9 mph89%29.74 "Hg10 mi
10:35 AM72 °FMild.7 mph94%29.73 "Hg10 mi
10:15 AM72 °FMild.5 mph94%29.73 "Hg7 mi
9:55 AM72 °FMild.No wind94%29.73 "Hg10 mi
9:35 AM72 °FMild.8 mph88%29.73 "Hg10 mi
9:15 AM72 °FMild.9 mph88%29.73 "Hg10 mi
8:55 AM72 °FMild.7 mph88%29.72 "Hg10 mi
8:35 AM70 °FMild.No wind94%29.73 "Hg10 mi
8:15 AM68 °FMild.No wind100%29.72 "Hg10 mi
7:55 AM68 °FMild.6 mph100%29.71 "Hg10 mi
7:35 AM68 °FMild.No wind100%29.71 "Hg10 mi
7:15 AM68 °FMild.No wind100%29.71 "Hg10 mi
6:55 AM70 °FFog.6 mph94%29.70 "Hg6 mi
6:15 AM73 °FMild.10 mph94%29.73 "Hg9 mi
5:55 AM73 °FMild.6 mph100%29.72 "Hg8 mi
5:15 AM73 °FMild.No wind100%29.70 "HgN/A
4:55 AM73 °FMild.No wind100%29.71 "Hg9 mi
4:35 AM73 °FMild.No wind100%29.72 "Hg9 mi
4:15 AM73 °FMild.No wind100%29.71 "Hg9 mi
3:55 AM73 °FMild.No wind100%29.72 "Hg9 mi
3:35 AM73 °FMild.No wind100%29.72 "Hg10 mi
3:15 AM73 °FMild.No wind100%29.73 "Hg9 mi
2:55 AM73 °FMild.No wind100%29.74 "Hg10 mi
2:15 AM73 °FMild.No wind100%29.76 "Hg10 mi
Weather by CustomWeather, © 2016

See weather overviewHow to use our weather pages